Regional Weather Roundup
Issued by NWS

Home | Current Version | Previous Version | Text Only | Print | Product List | Glossary Off
Versions: 1 2 3 4 5 6 7 8 9 10 11 12 13 14 15 16 17 18 19 20 21 22 23 24 25 26 27 28 29 30 31 32 33 34 35 36 37 38 39 40 41 42 43 44 45 46 47 48 49 50

000
ASUS43 KFSD 030302
RWRSD

WEATHER ROUNDUP FOR SOUTH DAKOTA
NATIONAL WEATHER SERVICE SIOUX FALLS SD
1000 PM CDT SAT MAY 02 2015

NOTE: "FAIR" INDICATES FEW OR NO CLOUDS BELOW 12,000 FEET WITH NO
SIGNIFICANT WEATHER AND/OR OBSTRUCTIONS TO VISIBILITY.


SDZ001>005-009-010-012>017-030400-
NORTHWEST AND NORTH CENTRAL SOUTH DAKOTA

CITY           SKY/WX    TMP DP  RH WIND       PRES   REMARKS
BUFFALO          N/A     63  29  27 NE13      29.68R
FAITH            N/A     66  25  21 N6        29.71R
MOBRIDGE       MOCLDY    64  31  28 N10       29.64R
$$

SDZ012>016-024>037-041>051-057-063-072>074-030400-
SOUTHWEST AND SOUTH CENTRAL SOUTH DAKOTA

CITY           SKY/WX    TMP DP  RH WIND       PRES   REMARKS
RAPID CTY ARPT PTCLDY    59  30  33 N9        29.74R
PIERRE         MOCLDY    69  42  37 N8        29.66R
CUSTER         CLEAR     55  30  38 NE3       29.86R
ELLSWORTH AFB  PTCLDY    68  31  24 N7        29.74R
PHILIP         CLOUDY    67  31  26 N12       29.68R
PINE RIDGE     CLEAR     57  40  52 E6        29.75R
WINNER         FAIR      71  38  29 SE8       29.66R
$$

SDZ004>011-016>023-039-040-030400-
NORTHEAST SOUTH DAKOTA

CITY           SKY/WX    TMP DP  RH WIND       PRES   REMARKS
ABERDEEN       CLOUDY    71  50  47 SW9       29.65R
WATERTOWN      CLEAR     68  45  43 S14       29.68R
BROOKINGS      CLEAR     70  50  49 S15       29.72S
SISSETON         N/A     77  39  25 SW10      29.64R
$$

SDZ017-020-022-023-036>040-048>070-030400-
SOUTHEAST SOUTH DAKOTA

CITY           SKY/WX    TMP DP  RH WIND       PRES   REMARKS
SIOUX FALLS    PTCLDY    69  53  56 S14       29.72R
HURON          PTCLDY    72  45  37 S14       29.63S
MITCHELL       PTCLDY    71  49  45 SE12      29.67R
YANKTON        MOCLDY    70  55  60 SE9       29.70S
$$

ABBREVIATIONS USED IN REMARKS
   TC - TEMPERATURE IN CELSIUS
  WCI - WIND CHILL INDEX
   HX - HEAT INDEX
  VSB - VISIBILITY




USA.gov is the U.S. government's official web portal to all federal, state and local government web resources and services.